When you browse on this site, cookies collect data to enhance your experience and personalize the content and advertising you see.
Visit our Privacy Policy to learn more. By continuing to use the site, you agree to this use of cookies and data.
  • In United Kingdom
  • List of Countries
  • For 7 days
  • Water Temperature
  • Weather Map
  • Weather Widgets
  • user-avatar
    Login

    Hourly Weather Leeds

    Today, 29 May, Friday

    Time Temperature Precipitation Wind Pressure Humidity
    00:00 +14°C° 0 mm 1 mps 769 mmHg 80%
    01:00 +14°C° 0 mm 1 mps 769 mmHg 81%
    02:00 +13°C° 0 mm 1 mps 769 mmHg 82%
    03:00 +13°C° 0 mm 1 mps 768 mmHg 83%
    04:00 +14°C° 0 mm 1 mps 768 mmHg 80%
    05:00 +14°C° 0 mm 1 mps 768 mmHg 77%
    06:00 +15°C° 0 mm 1 mps 768 mmHg 74%
    07:00 +16°C° 0 mm 1 mps 768 mmHg 66%
    08:00 +18°C° 0 mm 2 mps 768 mmHg 59%
    09:00 +19°C° 0 mm 2 mps 768 mmHg 51%
    10:00 +20°C° 0 mm 3 mps 768 mmHg 49%
    11:00 +21°C° 0 mm 3 mps 767 mmHg 47%
    12:00 +22°C° 0 mm 3 mps 767 mmHg 45%
    13:00 +22°C° 0 mm 3 mps 767 mmHg 47%
    14:00 +22°C° 0 mm 3 mps 766 mmHg 48%
    15:00 +22°C° 0 mm 3 mps 766 mmHg 50%
    16:00 +22°C° 0 mm 3 mps 766 mmHg 54%
    17:00 +21°C° 0 mm 3 mps 765 mmHg 58%
    18:00 +21°C° 0 mm 3 mps 765 mmHg 62%
    19:00 +19°C° 0 mm 3 mps 765 mmHg 67%
    20:00 +17°C° 0 mm 3 mps 765 mmHg 72%
    21:00 +14°C° 0 mm 3 mps 765 mmHg 77%
    22:00 +14°C° 0 mm 2 mps 766 mmHg 77%
    23:00 +13°C° 0 mm 2 mps 766 mmHg 77%

    Tomorrow, 30 May, Saturday

    Time Temperature Precipitation Wind Pressure Humidity
    00:00 +12°C° 0 mm 2 mps 766 mmHg 77%
    01:00 +10°C° 0 mm 2 mps 766 mmHg 78%
    02:00 +11°C° 0 mm 1 mps 766 mmHg 79%
    03:00 +10°C° 0 mm 1 mps 765 mmHg 80%
    04:00 +11°C° 0 mm 1 mps 766 mmHg 77%
    05:00 +11°C° 0 mm 1 mps 766 mmHg 74%
    06:00 +12°C° 0 mm 1 mps 766 mmHg 72%
    07:00 +13°C° 0 mm 2 mps 766 mmHg 66%
    08:00 +15°C° 0 mm 2 mps 765 mmHg 59%
    09:00 +16°C° 0 mm 3 mps 765 mmHg 53%
    10:00 +17°C° 0 mm 3 mps 765 mmHg 51%
    11:00 +18°C° 0 mm 4 mps 765 mmHg 49%
    12:00 +19°C° 0 mm 4 mps 765 mmHg 47%
    13:00 +20°C° 0 mm 4 mps 765 mmHg 50%
    14:00 +20°C° 0 mm 4 mps 765 mmHg 53%
    15:00 +20°C° 0 mm 4 mps 764 mmHg 56%
    16:00 +19°C° 0 mm 4 mps 764 mmHg 60%
    17:00 +18°C° 0 mm 4 mps 764 mmHg 64%
    18:00 +18°C° 0 mm 4 mps 764 mmHg 68%
    19:00 +15°C° 0 mm 4 mps 764 mmHg 73%
    20:00 +13°C° 0 mm 3 mps 765 mmHg 79%
    21:00 +11°C° 0 mm 3 mps 765 mmHg 84%
    22:00 +12°C° 0 mm 2 mps 765 mmHg 86%
    23:00 +10°C° 0 mm 2 mps 765 mmHg 88%

    Day after tomorrow, 31 May, Sunday

    Time Temperature Precipitation Wind Pressure Humidity
    00:00 +9°C° 0 mm 2 mps 765 mmHg 90%
    01:00 +9°C° 0 mm 2 mps 765 mmHg 91%
    02:00 +9°C° 0 mm 1 mps 765 mmHg 92%
    03:00 +9°C° 0 mm 1 mps 765 mmHg 92%
    04:00 +10°C° 0 mm 1 mps 765 mmHg 91%
    05:00 +9°C° 0 mm 2 mps 765 mmHg 90%
    06:00 +10°C° 0 mm 2 mps 765 mmHg 88%
    07:00 +13°C° 0 mm 2 mps 765 mmHg 80%
    08:00 +15°C° 0 mm 2 mps 765 mmHg 73%
    09:00 +16°C° 0 mm 3 mps 765 mmHg 65%
    10:00 +18°C° 0 mm 3 mps 765 mmHg 60%
    11:00 +19°C° 0 mm 3 mps 765 mmHg 55%
    12:00 +20°C° 0 mm 3 mps 766 mmHg 50%
    13:00 +20°C° 0 mm 3 mps 765 mmHg 51%
    14:00 +20°C° 0 mm 3 mps 765 mmHg 51%
    15:00 +21°C° 0 mm 3 mps 765 mmHg 52%
    16:00 +20°C° 0 mm 3 mps 765 mmHg 57%
    17:00 +19°C° 0 mm 4 mps 765 mmHg 62%
    18:00 +18°C° 0 mm 4 mps 765 mmHg 67%
    19:00 +17°C° 0 mm 3 mps 765 mmHg 72%
    20:00 +14°C° 0 mm 3 mps 765 mmHg 77%
    21:00 +13°C° 0 mm 2 mps 765 mmHg 82%
    22:00 +13°C° 0 mm 2 mps 765 mmHg 83%
    23:00 +12°C° 0 mm 1 mps 765 mmHg 83%

    1 June, Monday

    Time Temperature Precipitation Wind Pressure Humidity
    00:00 +11°C° 0 mm 1 mps 765 mmHg 83%
    01:00 +11°C° 0 mm 1 mps 765 mmHg 83%
    02:00 +10°C° 0 mm 1 mps 765 mmHg 83%
    03:00 +10°C° 0 mm 1 mps 765 mmHg 84%
    04:00 +11°C° 0 mm 1 mps 765 mmHg 82%
    05:00 +12°C° 0 mm 1 mps 765 mmHg 80%
    06:00 +13°C° 0 mm 1 mps 764 mmHg 79%
    07:00 +14°C° 0 mm 1 mps 764 mmHg 72%
    08:00 +16°C° 0 mm 2 mps 764 mmHg 66%
    09:00 +18°C° 0 mm 2 mps 764 mmHg 59%
    10:00 +19°C° 0 mm 2 mps 764 mmHg 56%
    11:00 +19°C° 0 mm 3 mps 764 mmHg 53%
    12:00 +20°C° 0 mm 3 mps 763 mmHg 50%
    13:00 +20°C° 0 mm 3 mps 763 mmHg 50%
    14:00 +20°C° 0 mm 3 mps 763 mmHg 51%
    15:00 +21°C° 0 mm 4 mps 763 mmHg 51%
    16:00 +20°C° 0 mm 4 mps 762 mmHg 53%
    17:00 +19°C° 0 mm 3 mps 762 mmHg 56%
    18:00 +18°C° 0 mm 3 mps 762 mmHg 59%
    19:00 +17°C° 0 mm 3 mps 762 mmHg 66%
    20:00 +15°C° 0 mm 2 mps 762 mmHg 73%
    21:00 +13°C° 0 mm 2 mps 762 mmHg 81%
    22:00 +13°C° 0 mm 2 mps 762 mmHg 82%
    23:00 +12°C° 0 mm 1 mps 761 mmHg 84%

    2 June, Tuesday

    Time Temperature Precipitation Wind Pressure Humidity
    00:00 +10°C° 0 mm 0 mps 761 mmHg 86%
    01:00 +10°C° 0 mm 0 mps 761 mmHg 86%
    02:00 +10°C° 0 mm 0 mps 760 mmHg 86%
    03:00 +9°C° 0 mm 0 mps 760 mmHg 86%
    04:00 +10°C° 0 mm 0 mps 759 mmHg 84%
    05:00 +11°C° 0 mm 0 mps 759 mmHg 81%
    06:00 +12°C° 0 mm 0 mps 759 mmHg 79%
    07:00 +15°C° 0 mm 1 mps 758 mmHg 71%
    08:00 +18°C° 0 mm 1 mps 758 mmHg 63%
    09:00 +19°C° 0 mm 1 mps 758 mmHg 56%
    10:00 +20°C° 0 mm 1 mps 757 mmHg 52%
    11:00 +21°C° 0 mm 1 mps 757 mmHg 49%
    12:00 +21°C° 0 mm 2 mps 757 mmHg 45%
    13:00 +21°C° 0 mm 2 mps 756 mmHg 47%
    14:00 +21°C° 0 mm 2 mps 756 mmHg 49%
    15:00 +23°C° 0 mm 2 mps 755 mmHg 51%
    16:00 +21°C° 0.4 mm 3 mps 755 mmHg 59%
    17:00 +20°C° 0.4 mm 3 mps 755 mmHg 67%
    18:00 +19°C° 0.4 mm 3 mps 754 mmHg 75%
    19:00 +18°C° 0.6 mm 3 mps 754 mmHg 81%
    20:00 +16°C° 0.6 mm 3 mps 755 mmHg 86%
    21:00 +14°C° 0.6 mm 3 mps 755 mmHg 92%
    22:00 +14°C° 0.1 mm 3 mps 754 mmHg 92%
    23:00 +13°C° 0.1 mm 3 mps 754 mmHg 93%

    3 June, Wednesday

    Time Temperature Precipitation Wind Pressure Humidity
    00:00 +13°C° 0.1 mm 4 mps 754 mmHg 93%
    01:00 +13°C° 0 mm 4 mps 754 mmHg 93%
    02:00 +13°C° 0 mm 4 mps 754 mmHg 93%
    03:00 +12°C° 0 mm 4 mps 753 mmHg 93%
    04:00 +13°C° 0.1 mm 5 mps 753 mmHg 93%
    05:00 +13°C° 0.1 mm 5 mps 753 mmHg 92%
    06:00 +13°C° 0.1 mm 6 mps 753 mmHg 91%
    07:00 +14°C° 0.1 mm 6 mps 754 mmHg 89%
    08:00 +15°C° 0.1 mm 6 mps 754 mmHg 87%
    09:00 +15°C° 0.1 mm 6 mps 754 mmHg 85%
    10:00 +16°C° 0 mm 7 mps 754 mmHg 83%
    11:00 +16°C° 0 mm 7 mps 754 mmHg 81%
    12:00 +17°C° 0 mm 7 mps 754 mmHg 79%
    13:00 +17°C° 0 mm 7 mps 754 mmHg 79%
    14:00 +17°C° 0 mm 7 mps 753 mmHg 78%
    15:00 +17°C° 0 mm 7 mps 753 mmHg 78%
    16:00 +16°C° 0 mm 7 mps 754 mmHg 79%
    17:00 +16°C° 0 mm 7 mps 754 mmHg 79%
    18:00 +15°C° 0 mm 7 mps 754 mmHg 80%
    19:00 +15°C° 0 mm 7 mps 754 mmHg 81%
    20:00 +14°C° 0 mm 7 mps 754 mmHg 83%
    21:00 +13°C° 0 mm 6 mps 755 mmHg 84%
    22:00 +13°C° 0 mm 6 mps 754 mmHg 85%
    23:00 +11°C° 0 mm 6 mps 754 mmHg 85%
    Show more